{"data":{"norad_id":58899,"intl_designator":"2024-022A","name":"LEMUR-2-NIMBUS2000","alt_names":[],"object_type":"PAYLOAD","status":"ACTIVE","operator":null,"country":"US","launch_date":"2024-01-31","launch_site_code":"RLLB","launch_vehicle":null,"mission":null,"orbit_class":"UNKNOWN","rcs_meters":null,"size_class":null,"mass_kg":null,"dimensions":null,"purposes":["earth_obs"],"wikipedia_slug":null,"has_3d_model":false,"image_url":null,"decayed_at":null,"tle_current":{"epoch":"2026-05-25T03:15:34.251840Z","epoch_age_seconds":74019,"freshness":"FRESH","line1":"1 58899U 24022A   26145.13581310  .00016719  00000+0  43200-3 0  9994","line2":"2 58899  97.4140 354.8598 0008760 190.3600 169.7467 15.39155496128726","mean_motion":15.39155496,"eccentricity":0.000876,"inclination_deg":97.414,"raan_deg":354.8598,"arg_perigee_deg":190.36,"mean_anomaly_deg":169.7467,"bstar":0.000432,"rev_number":12872,"period_min":93.55779865922,"perigee_km":442.62508229552,"apogee_km":454.58553482012,"semimajor_km":6826.7423085578,"source":"CELESTRAK","updated_at":"2026-05-25T13:38:13.534072Z"}}}